Regional Weather Roundup
Issued by NWS

Home | Current Version | Previous Version | Text Only | Print | Product List | Glossary On
Versions: 1 2 3 4 5 6 7 8 9 10 11 12 13 14 15 16 17 18 19 20 21 22 23 24 25 26 27 28 29 30 31 32 33 34 35 36 37 38 39 40 41 42 43 44 45 46 47 48 49 50
000
ASUS44 KEWX 272310
RWRTX
SOUTH TEXAS REGIONAL WEATHER ROUNDUP
NATIONAL WEATHER SERVICE AUSTIN/SAN ANTONIO TX
500 PM CST SAT DEC 27 2014

NOTE: "FAIR" INDICATED FEW OR NO CLOUDS BELOW 12,000 FEET WITH NO
SIGNIFICANT WEATHER AND/OR OBSTRUCTIONS TO VISIBILITY.

* - THESE STATIONS ARE NOT NWS OR FAA STATIONS...AND ARE NOT SUBJECT
    TO NWS AND FAA QUALITY CONTROL.

TXZ171-172-183>190-280000-
TEXAS HILL COUNTRY AND EDWARDS PLATEAU

CITY           SKY/WX    TMP DP  RH WIND       PRES   REMARKS
JUNCTION       CLOUDY    39  32  76 N12       30.22S WCI  32
*LLANO         CLOUDY    43  34  70 N15       30.27R WCI  35
BURNET         CLOUDY    42  34  73 N13G21    30.22R WCI  35
*HORSESHOE BAY CLOUDY    44  35  71 N13G20    30.21R WCI  37
*KERRVILLE     CLOUDY    42  35  74 N18       30.17R WCI  34
*FREDERICKSBRG CLOUDY    41  33  74 N15G22    30.18S WCI  33
*ROCKSPRINGS   CLOUDY    39  32  75 N16G22    30.18S WCI  30
*BOERNE STAGE  CLOUDY    45  34  65 N16G23    30.14S WCI  37
HONDO          CLOUDY    49  35  58 N20G28    30.16R WCI  42
*UVALDE        CLOUDY    49  36  61 N13G18    30.16R WCI  44
DEL RIO        CLOUDY    47  36  65 NW15G23   30.21R WCI  41
LAUGHLIN AFB   NOT AVBL
CARRIZO SPRGS  CLOUDY    52  41  66 NE9       30.13R
$$

TXZ173-191>194-202-209-217>225-228-280000-
CENTRAL AND SOUTH CENTRAL TEXAS

CITY           SKY/WX    TMP DP  RH WIND       PRES   REMARKS
GEORGETOWN     CLOUDY    45  36  70 N17G25    30.18R WCI  37
AUSTIN/BERGSTM CLOUDY    46  38  73 N17G24    30.16S WCI  39
AUSTIN/MABRY   CLOUDY    46  37  71 N8G18     30.19R WCI  42
*AUSTIN/EXEC   CLOUDY    45  37  76 N20G28    30.18S WCI  37
*LAGO VISTA    CLOUDY    44  36  72 N13G20    30.18S WCI  38
SAN MARCOS     CLOUDY    46  37  71 N25       30.15R WCI  38
NEW BRAUNFELS  CLOUDY    48  39  71 N24G30    30.13R WCI  40
RANDOLPH AFB   CLOUDY    47  37  68 N21G29    30.13R WCI  40
PT SAN ANTONIO CLOUDY    50  38  64 N15G28    30.11R WCI  44
SAN ANTONIO    CLOUDY    49  37  63 N17G28    30.13R WCI  43
STINSON FIELD  CLOUDY    50  38  63 N16G24    30.12R WCI  44
*PLEASANTON    CLOUDY    51  41  70 N12G18    30.14R
*LA GRANGE     CLOUDY    49  41  74 N14G21    30.12R WCI  44
*GIDDINGS      CLOUDY    46  37  73 N12G24    30.18R WCI  40
*GONZALES      CLOUDY    49  41  73 N14G24    30.13R WCI  44
$$

TXZ163>164-176>182-195>201-210>213-226-227-235-280000-
SOUTHEAST TEXAS

CITY           SKY/WX    TMP DP  RH WIND       PRES   REMARKS
COLLEGE STN    CLOUDY    46  40  79 N18       30.14S WCI  39
*BRYAN         CLOUDY    45  39  80 NW16G23   30.16S WCI  38
*CALDWELL      MOCLDY    45  39  81 NW18G26   30.19R WCI  37
*CROCKETT      CLOUDY    48  45  87 N12G20    30.16R WCI  43
*BRENHAM       MOCLDY    48  42  81 N20       30.14R WCI  41
HUNTSVILLE     CLOUDY    46  43  89 N10G18    30.13R WCI  41
CONROE         LGT RAIN  48  45  89 N9        30.10R WCI  44
HOUSTON BUSH   CLOUDY    50  47  89 N16       30.07R WCI  44
HOUSTON HOBBY  CLOUDY    52  50  93 N17G24    30.06R
*HOUSTON SW AP CLOUDY    43  43  98 NW13      30.07R WCI  37
PEARLAND       CLOUDY    53  51  93 N8G17     30.07R
HOUSTON HOOKS  CLOUDY    49  46  90 N12G20    30.08R WCI  44
ELLINGTON FLD  CLOUDY    54  50  87 NW14      30.06R
SUGAR LAND     CLOUDY    50  46  86 N14       30.07R WCI  45
*HOUSTON EXEC  CLOUDY    46  45  93 N17G23    30.10R WCI  39
*CLEVELAND MUN CLOUDY    49  48  95 N13G23    30.09R WCI  45
*WHARTON       CLOUDY    48  46  92 N17G25    30.09R WCI  41
*COLUMBUS      CLOUDY    47  42  81 N18G24    30.11R WCI  40
$$

TXZ214>216-236>238-280000-
THE UPPER TEXAS COAST

CITY           SKY/WX    TMP DP  RH WIND       PRES   REMARKS
*ORANGE        CLOUDY    71  69  93 S13       30.01R
PORT ARTHUR    CLOUDY    73  70  90 S14G21    29.99R
GALVESTON      CLOUDY    60  58  92 NW17      30.03R FOG
ANGLETON       LGT RAIN  50  50 100 N10       30.05R WCI  46
*BAY CITY        N/A     51  51  98 N15G22    30.06R
PALACIOS       CLOUDY    51  47  86 N24       30.06R
$$

TXZ229>234-239>247-280000-
TEXAS COASTAL BEND AND RIO GRANDE PLAINS

CITY           SKY/WX    TMP DP  RH WIND       PRES   REMARKS
VICTORIA       CLOUDY    51  44  77 N16G24    30.11R
*BEEVILLE      CLOUDY    53  44  70 N12G20    30.08R
ROCKPORT       CLOUDY    53  47  79 N22G29    30.06R
*PORT ARANSAS  CLOUDY    55  51  87 N24G31    30.04R
*PORT LAVACA   CLOUDY    50  47  90 N16G26    30.09R WCI  44
*INGLESIDE     CLOUDY    55  48  76 N23G29    30.04R
CORPUS CHRISTI CLOUDY    57  48  72 N23G29    30.05R
CORPUS NAS     CLOUDY    57  51  80 N26G33    30.03R
*ROBSTOWN      CLOUDY    58  48  70 N21G31    30.04R
ALICE          CLOUDY    57  46  66 N22G30    30.04S
KINGSVILLE NAS CLOUDY    61  51  70 N17G28    30.00R
COTULLA        CLOUDY   N/A N/A N/A N12G21    30.12R
*FAITH RANCH   CLOUDY    55  41  58 N13G20    30.12R
LAREDO         CLOUDY    55  48  76 N17G24    30.13R
$$

TXZ248>255-280000-
DEEP SOUTH TEXAS

CITY           SKY/WX    TMP DP  RH WIND       PRES   REMARKS
BROWNSVILLE    CLOUDY    75  69  81 S15       29.96R
PORT ISABEL    LGT RAIN  75  69  81 S12       29.95R
*SOUTH PADRE   CLOUDY   N/A N/A N/A E6        29.97R
HARLINGEN      CLOUDY    75  69  81 NW5       29.95R
*HEBBRONVILLE  CLOUDY    56  51  83 N12       30.06R HAZE
MCALLEN        LGT RAIN  70  62  76 NW9       29.99R
*WESLACO       CLOUDY    73  64  73 NW6       29.97R
FALFURRIAS     CLOUDY    65  54  65 N15G26    29.99R
EDINBURG       CLOUDY    75  62  62 NW9       29.97S
*ZAPATA        CLOUDY    58  53  81 N14G23    30.08R
$$

TXZ213>215-236>238-242>244-246-247-251-254-255-280000-
CMAN STATIONS

STATION/POSITION TIME  TEMP    WIND        PRES    WAVE
                       AIR SEA DIR/SP/G            HT/PER
                 (UTC) (F)     (DEG/KT/KT) (MB)    (FT/S)
SABINE PASS      2300   68 60  210/ 11/ 14 1015.6
SEA RIM ST PARK  2300   65     190/  8/ 11 1016.4
NORTH JETTY/GLS  2300   58 63  350/ 23/ 25   N/A
EAGLE POINT      2300      62  340/  9/ 15 1017.0
MORGANS POINT    2300   53     320/ 15/ 19 1017.3
MISSION/ARANSAS  2200           10/ 22     1017.0
PORT O`CONNOR    2300          340/ 22/ 28   N/A
PORT ARANSAS     2300   54 63  350/ 19/ 24 1017.5
MALAQUITE BEACH  2300   60 66  350/ 19/ 24 1015.4
BAFFIN BAY       2300   69     170/  6/  8 1015.1
PORT ISABEL      2300   72 64  160/  9/ 12 1014.7
$$

GMZ080-GMZ150>470-280000-
OFFSHORE BUOY REPORTS

STATION/POSITION TIME  TEMP    WIND        PRES    WAVE
                       AIR SEA DIR/SP/G            HT/PER
                 (UTC) (F)     (DEG/KT/KT) (MB)    (FT/S)
20 E GALVESTON   2300   65 62  190/  8/ 10 1015.3    3/ 6
90 E PT ARANSAS  2300   73 72  180/  8/ 10 1016.1    4/ 7
35 NE PT MANSFLD 2300   70 70  210/  2/  4 1015.2    4/ 6
200 E PT ISABEL  2300   74 74  150/ 12/ 14 1016.4    4/ 6
$$



USA.gov is the U.S. government's official web portal to all federal, state and local government web resources and services.